Regional Weather Roundup
Issued by NWS

Home | Current Version | Previous Version | Graphics & Text | Print | Product List | Glossary Off
Versions: 1 2 3 4 5 6 7 8 9 10 11 12 13 14 15 16 17 18 19 20 21 22 23 24 25 26 27

000
ASUS43 KDMX 231807
RWRIA

WEATHER ROUNDUP FOR IOWA
NATIONAL WEATHER SERVICE DES MOINES IA
100 PM CDT THU OCT 23 2014

NOTE: "FAIR" INDICATES FEW OR NO CLOUDS BELOW 12,000 FEET WITH NO
SIGNIFICANT WEATHER AND/OR OBSTRUCTIONS TO VISIBILITY.

* - THESE STATIONS ARE NOT NWS STATIONS...THUS NOT UNDER NWS
QUALITY CONTROL.  THEY ALSO DO NOT REPORT WEATHER SUCH
AS PRECIPITATION OR FOG.

IAZ001>003-012>014-020>022-031>034-043>046-231900-
   NORTHWEST IOWA

CITY           SKY/WX    TMP DP  RH WIND       PRES   REMARKS
CARROLL *      SUNNY     66  54  63 VRB3      30.04F
CHEROKEE *     SUNNY     62  58  86 SW5       30.04F
DENISON *      SUNNY     64  54  68 NE5       30.03F
LE MARS *      SUNNY     64  55  72 SW7       30.04F
ORANGE CITY *  SUNNY     66  48  52 SW7       30.04S
SHELDON *      SUNNY     64  52  63 W7        30.02F
SIOUX CITY     SUNNY     67  52  58 S6        30.05F
6HR MIN TEMP:  46; 6HR MAX TEMP:  67;

SPENCER        SUNNY     66  52  60 W8        30.03F
6HR MIN TEMP:  49; 6HR MAX TEMP:  66;

STORM LAKE *   SUNNY     63  54  72 W8        30.05F
$$

IAZ055>058-069>071-079>083-090>094-231900-
   SOUTHWEST IOWA

CITY           SKY/WX    TMP DP  RH WIND       PRES   REMARKS
ATLANTIC *     MOSUNNY   66  55  68 W7        30.04F
AUDUBON *      SUNNY     66  54  63 NW7       30.06F
CLARINDA *     PTSUNNY   70  59  68 NW6       30.07F
COUNCIL BLFS * SUNNY     66  54  63 CALM      30.04F
CRESTON *      PTSUNNY   66  59  77 W9        30.06F
HARLAN  *      SUNNY     66  54  63 NW6       30.08F
LAMONI         LGT RAIN  58  57  97 SW9       30.07F FOG
6HR MIN TEMP:  50; 6HR MAX TEMP:  59; 6HR PCP: TRACE;

RED OAK *      MOSUNNY   66  57  72 VRB3      30.05F
SHENANDOAH *   MOSUNNY   68  59  73 NW6       30.06F
$$

IAZ047>049-059>061-072>074-084-231900-
   CENTRAL IOWA

CITY           SKY/WX    TMP DP  RH WIND       PRES   REMARKS
AMES           MOSUNNY   63  56  78 W7        30.03F
6HR MIN TEMP:  50; 6HR MAX TEMP:  64; 6HR PCP:  0.37;

ANKENY *       CLOUDY    64  61  88 VRB5      30.04F
CHARITON *     CLOUDY    59  55  88 SW12      30.06F
DES MOINES     CLOUDY    67  60  78 W10       30.04F
6HR MIN TEMP:  54; 6HR MAX TEMP:  67; 6HR PCP:  0.03;

GRINNELL*      CLOUDY    58  54  86 SW9       30.06S
KNOXVILLE *    CLOUDY    59  52  77 S12       30.05F
MARSHALLTOWN   CLOUDY    58  55  90 SW5       30.04S
6HR MIN TEMP:  48; 6HR MAX TEMP:  58; 6HR PCP: TRACE;

PELLA *        CLOUDY    60  53  79 SW6       30.07F
PERRY *          N/A     68  55  64 NW6       30.04F
$$

IAZ004>006-015-016-023>025-035-036-231900-
   NORTH CENTRAL IOWA

CITY           SKY/WX    TMP DP  RH WIND       PRES   REMARKS
ALGONA *       SUNNY     59  55  88 W8        30.04F
CLARION *      MOSUNNY   63  55  77 NW7       30.03F
ESTHERVILLE    SUNNY     64  51  62 VRB7      30.02F
6HR MIN TEMP:  49; 6HR MAX TEMP:  64;

FORT DODGE *   SUNNY     63  54  72 NW8       30.05F
MASON CITY     MOSUNNY   59  53  80 NW6       30.04F
6HR MIN TEMP:  48; 6HR MAX TEMP:  60; 6HR PCP:  0.01;

FOREST CITY *  MOSUNNY   63  54  72 W8        30.02F
IOWA FALLS *   PTSUNNY   61  54  77 W6        30.04F
$$

IAZ007>011-017>019-026>030-037>042-050>054-066-231900-
   NORTHEAST IOWA

CITY           SKY/WX    TMP DP  RH WIND       PRES   REMARKS
CEDAR RAPIDS   CLOUDY    53  48  83 S9        30.05F
6HR MIN TEMP:  47; 6HR MAX TEMP:  52; 6HR PCP: TRACE;

CHARLES CITY * CLOUDY    52  50  93 S6        30.04F FOG
CLINTON *      CLOUDY    57  45  62 S10       30.12S
DECORAH *      CLOUDY    48  48 100 VRB6      30.03F FOG
DUBUQUE        HVY RAIN  47  46  97 S12       30.07F FOG
6HR MIN TEMP:  43; 6HR MAX TEMP:  48; 6HR PCP:  0.10;

MONTICELLO *   CLOUDY    50  48  93 S8        30.07F
OELWEIN *      CLOUDY    50  50 100 S9        30.05F FOG
WATERLOO       CLOUDY    52  50  93 S5        30.04F
6HR MIN TEMP:  47; 6HR MAX TEMP:  52; 6HR PCP:  0.32;

$$

IAZ064-065-067-068-078-231900-
   EAST CENTRAL IOWA

CITY           SKY/WX    TMP DP  RH WIND       PRES   REMARKS
DAVENPORT      CLOUDY    57  43  59 S14       30.09F
6HR MIN TEMP:  42; 6HR MAX TEMP:  57;

IOWA CITY      CLOUDY    56  50  80 S6        30.08F
6HR MIN TEMP:  46; 6HR MAX TEMP:  56; 6HR PCP:  0.02;

MT. PLEASANT * PTSUNNY   60  47  63 S9        30.08F
MUSCATINE *    PTSUNNY   59  46  63 S14       30.08F
QUAD CITIES    CLOUDY    59  44  57 S13       30.09F
6HR MIN TEMP:  40; 6HR MAX TEMP:  59;

$$

IAZ062-063-075>077-085>089-095>099-231900-
   SOUTHEAST IOWA

CITY           SKY/WX    TMP DP  RH WIND       PRES   REMARKS
BURLINGTON     CLOUDY    58  46  64 S13       30.10F
6HR MIN TEMP:  47; 6HR MAX TEMP:  58;

FAIRFIELD *    PTSUNNY   66  52  59 SW10      30.06F
FORT MADISON * MOSUNNY   61  48  63 S5        30.10F
KEOKUK *       PTSUNNY   57  48  72 S12       30.10F
OSKALOOSA *    CLOUDY    62  53  71 SW13      30.06F
CENTERVILLE *  CLOUDY    64  57  77 S12       30.08F
OTTUMWA        CLOUDY    66  54  65 S12       30.05F
6HR MIN TEMP:  50; 6HR MAX TEMP:  66;

WASHINGTON *   CLOUDY    63  52  67 S13       30.06F
$$

ABBREVIATIONS USED IN REMARKS
   TC - TEMPERATURES IN CELSIUS
  WCI - WIND CHILL INDEX
   HX - HEAT INDEX
  VSB - VISIBILITY
$$




USA.gov is the U.S. government's official web portal to all federal, state and local government web resources and services.